Spencer, IA

2:44 AM CDT on June 28, 2017 (GMT -0500)
Spencer Municipal

Weather History for KSPW - June, 2014

Change the Weather History Date:

Sunday, June 15, 2014

  Actual Average Record
Temperature  
Mean Temperature 68 °F -  
Max Temperature 77 °F 77 °F 91 °F (1970)
Min Temperature 61 °F 55 °F 37 °F (1989)
Cooling Degree Days 3    
Growing Degree Days 18 (Base 50)    
Moisture  
Dew Point 60 °F    
Average Humidity 82    
Maximum Humidity 97    
Minimum Humidity 46    
Precipitation  
Precipitation 0.87 in - - ()
Sea Level Pressure  
Sea Level Pressure 29.67 in    
Wind  
Wind Speed 11 mph (SW)    
Max Wind Speed 25 mph    
Max Gust Speed 33 mph    
Visibility 9 miles    
Events Rain , Thunderstorm    
Averages and records for this station are not official NWS values.
T = Trace of Precipitation, MM = Missing Value Source: NWS Daily Summary

Daily Weather History Graph

Daily Weather History Graph

Search for Another Location

Airport or City:

Trip Planner

Search our weather history database for the weather conditions in past years. The results will help you decide how hot, cold, wet, or windy it might be!

Date:

Astronomy

Jun. 15, 2014 Rise Set
Actual Time 5:40 AM CDT 9:02 PM CDT
Civil Twilight 5:04 AM CDT 9:37 PM CDT
Nautical Twilight 4:18 AM CDT 10:24 PM CDT
Astronomical Twilight 3:21 AM CDT 11:21 PM CDT
Moon 11:08 PM CDT (6/15) 8:38 AM CDT (6/15)
Length of Visible Light 16h 32m
Length of Day
15h 21m
Waning Gibbous, 91% of the Moon is Illuminated
Jun 15
Waning Gibbous
Jun 19
Last Quarter
Jun 27
New
Jul 5
First Quarter
Jul 12
Full

Hourly Weather History & Observations

Time (CDT) Temp. Dew Point Humidity Pressure Visibility Wind Dir Wind Speed Gust Speed Precip Events Conditions
12:06 AM 64.0 °F 62.1 °F 93% 29.60 in 10.0 mi Calm Calm - 0.01 in Rain Light Rain
12:13 AM 64.0 °F 62.1 °F 93% 29.60 in 10.0 mi ESE 8.1 mph - 0.01 in Rain , Thunderstorm Light Rain
12:28 AM 63.0 °F 62.1 °F 97% 29.60 in 10.0 mi ESE 8.1 mph - 0.02 in Rain Light Rain
12:40 AM 64.0 °F 62.1 °F 93% 29.66 in 10.0 mi South 15.0 mph - 0.03 in Rain , Thunderstorm Light Rain
12:53 AM 64.0 °F 62.1 °F 93% 29.64 in 5.0 mi South 13.8 mph - 0.07 in Rain , Thunderstorm Rain
1:05 AM 64.0 °F 62.1 °F 93% 29.64 in 10.0 mi South 10.4 mph - 0.01 in Rain , Thunderstorm Light Thunderstorms and Rain
1:20 AM 63.0 °F 62.1 °F 97% 29.61 in 9.0 mi SSE 6.9 mph - 0.02 in Rain Light Rain
1:53 AM 63.0 °F 62.1 °F 97% 29.58 in 10.0 mi ESE 8.1 mph - 0.06 in Rain , Thunderstorm Light Rain
2:53 AM 63.0 °F 62.1 °F 97% 29.58 in 5.0 mi ESE 10.4 mph - 0.22 in Rain , Thunderstorm Rain
3:53 AM 63.0 °F 61.0 °F 93% 29.54 in 10.0 mi North 3.5 mph - 0.09 in Rain , Thunderstorm Light Rain
4:02 AM 63.0 °F 61.0 °F 93% 29.58 in 8.0 mi West 13.8 mph - 0.02 in Rain , Thunderstorm Light Thunderstorms and Rain
4:10 AM 63.0 °F 61.0 °F 93% 29.62 in 4.0 mi WSW 18.4 mph - 0.09 in Rain , Thunderstorm Heavy Thunderstorms and Rain
4:13 AM 63.0 °F 61.0 °F 93% 29.61 in 2.5 mi SW 17.3 mph - 0.12 in Rain , Thunderstorm Heavy Thunderstorms and Rain
4:15 AM 63.0 °F 61.0 °F 93% 29.61 in 2.0 mi SW 17.3 mph - 0.16 in Rain , Thunderstorm Heavy Thunderstorms and Rain
4:22 AM 63.0 °F 61.0 °F 93% 29.60 in 1.5 mi WSW 10.4 mph - 0.29 in Rain , Thunderstorm Heavy Thunderstorms and Rain
4:40 AM 62.1 °F 61.0 °F 96% 29.59 in 4.0 mi Calm Calm - 0.36 in Rain Rain
4:53 AM 62.1 °F 61.0 °F 96% 29.52 in 5.0 mi NNE 10.4 mph - 0.40 in Rain Rain
6:53 AM 62.1 °F 61.0 °F 96% 29.50 in 10.0 mi Variable 3.5 mph - 0.02 in   Overcast
7:36 AM 63.0 °F 61.0 °F 93% 29.57 in 10.0 mi West 17.3 mph - 0.00 in   Mostly Cloudy
7:53 AM 63.0 °F 60.1 °F 90% 29.56 in 10.0 mi WSW 18.4 mph - 0.00 in   Mostly Cloudy
8:24 AM 64.9 °F 62.1 °F 90% 29.59 in 10.0 mi WSW 19.6 mph 27.6 mph 0.01 in   Mostly Cloudy
8:50 AM 64.4 °F 62.6 °F 94% 29.60 in 10.0 mi WSW 19.6 mph 28.8 mph 0.01 in   Overcast
8:53 AM 64.9 °F 62.1 °F 90% 29.59 in 10.0 mi WSW 20.7 mph 26.5 mph 0.01 in   Overcast
9:44 AM 66.0 °F 60.1 °F 81% 29.65 in 10.0 mi West 20.7 mph 28.8 mph N/A   Mostly Cloudy
9:53 AM 66.9 °F 60.1 °F 79% 29.64 in 10.0 mi West 21.9 mph 31.1 mph N/A   Mostly Cloudy
10:53 AM 69.1 °F 57.9 °F 68% 29.68 in 10.0 mi WNW 25.3 mph 33.4 mph N/A   Scattered Clouds
11:53 AM 70.0 °F 57.0 °F 63% 29.73 in 10.0 mi West 19.6 mph 27.6 mph N/A   Mostly Cloudy
12:53 PM 72.0 °F 57.9 °F 61% 29.76 in 10.0 mi West 20.7 mph - N/A   Scattered Clouds
1:53 PM 73.0 °F 57.9 °F 59% 29.78 in 10.0 mi West 19.6 mph - N/A   Partly Cloudy
2:53 PM 75.0 °F 57.0 °F 53% 29.77 in 10.0 mi West 20.7 mph 29.9 mph N/A   Partly Cloudy
4:53 PM 75.9 °F 55.0 °F 48% 29.78 in 10.0 mi West 19.6 mph 27.6 mph N/A   Partly Cloudy
5:53 PM 75.9 °F 54.0 °F 46% 29.79 in 10.0 mi West 18.4 mph 24.2 mph N/A   Clear
6:53 PM 75.0 °F 53.1 °F 46% 29.81 in 10.0 mi WSW 15.0 mph - N/A   Clear
7:53 PM 73.9 °F 52.0 °F 46% 29.83 in 10.0 mi WSW 11.5 mph - N/A   Clear
8:53 PM 66.9 °F 55.9 °F 68% 29.85 in 10.0 mi SSW 5.8 mph - N/A   Clear
9:53 PM 62.1 °F 57.9 °F 86% 29.87 in 10.0 mi South 6.9 mph - N/A   Clear
10:53 PM 61.0 °F 57.0 °F 87% 29.88 in 10.0 mi South 5.8 mph - N/A   Clear
11:53 PM 62.1 °F 55.9 °F 80% 29.89 in 10.0 mi South 10.4 mph - N/A   Clear